Tracking 31027 objects as of 19-Jul-2025
HD Live streaming from Space Station
objects crossing your sky now

NOAA 16 DEB

Track NOAA 16 DEB now!
10-day predictions


NORAD ID: 41210
Int'l Code: 2000-055DP
Perigee: 817.3 km
Apogee: 849.8 km
Inclination: 98.7 °
Period: 101.4 minutes
Semi major axis: 7204 km
RCS: Unknown
Launch date: September 21, 2000
Source: United States (US)
Launch site: AIR FORCE WESTERN TEST RANGE (AFWTR)

Note: This is SATELLITE DEBRIS
Your satellite tracking list
RESURS O1 DEB
Track 1 satellite(s)




NASA's NSSDC Master Catalog

Two Line Element Set (TLE):
1 41210U 00055DP  25198.37032016  .00001827  00000-0  88242-3 0  9990
2 41210  98.7010 252.0949 0022581  17.5746 342.6207 14.19696479495237
Source of the keplerian elements: AFSPC